Hereford, TX

11:52 AM CST on December 07, 2016 (GMT -0600)
Hereford Municipal

Weather History for KHRX - January, 2014

Change the Weather History Date:

Sunday, January 5, 2014

  Actual Average (KAMA) Record (KAMA)
Temperature  
Mean Temperature 20 °F 36 °F  
Max Temperature 29 °F 50 °F 83 °F (1927)
Min Temperature 10 °F 23 °F -5 °F (1942)
Degree Days  
Heating Degree Days 46 29  
Month to date heating degree days 145  
Since 1 July heating degree days 1862  
Cooling Degree Days 0 0  
Month to date cooling degree days 0  
Year to date cooling degree days 0  
Moisture  
Dew Point 11 °F    
Average Humidity 69    
Maximum Humidity 85    
Minimum Humidity 42    
Precipitation  
Precipitation 0.00 in 0.02 in 0.61 in (1960)
Month to date precipitation 0.10  
Year to date precipitation 0.10  
Snow  
Snow 0.00 in 0.10 in 12.40 in (1932)
Month to date snowfall 0.5  
Since 1 July snowfall 6.9  
Snow Depth -    
Sea Level Pressure  
Sea Level Pressure 30.22 in    
Wind  
Wind Speed 13 mph (North)    
Max Wind Speed 22 mph    
Max Gust Speed 29 mph    
Visibility 10 miles    
Events Snow    
T = Trace of Precipitation, MM = Missing Value Source: NWS Daily Summary

Daily Weather History Graph

Daily Weather History Graph

Search for Another Location

Airport or City:

Trip Planner

Search our weather history database for the weather conditions in past years. The results will help you decide how hot, cold, wet, or windy it might be!

Date:

Astronomy

Jan. 05, 2014 Rise Set
Actual Time 7:57 AM CST 5:52 PM CST
Civil Twilight 7:29 AM CST 6:20 PM CST
Nautical Twilight 6:58 AM CST 6:51 PM CST
Astronomical Twilight 6:27 AM CST 7:22 PM CST
Moon 10:52 AM CST (1/5) 11:08 PM CST (1/5)
Length of Visible Light 10h 50m
Length of Day
9h 54m
Waxing Crescent, 25% of the Moon is Illuminated
Jan 5
Waxing Crescent
Jan 7
First Quarter
Jan 15
Full
Jan 23
Last Quarter
Jan 30
New

Hourly Weather History & Observations

Time (CST) Temp. Windchill Dew Point Humidity Pressure Visibility Wind Dir Wind Speed Gust Speed Precip Events Conditions
12:15 AM 24.6 °F 10.9 °F 20.1 °F 83% 30.02 in 7.0 mi North 18.4 mph - N/A Snow Light Snow
12:35 AM 24.6 °F 10.5 °F 20.5 °F 84% 30.02 in 5.0 mi North 19.6 mph - N/A Snow Light Snow
12:55 AM 23.9 °F 8.8 °F 19.0 °F 82% 30.03 in 5.0 mi North 21.9 mph 28.8 mph N/A Snow Light Snow
1:15 AM 23.2 °F 8.6 °F 18.7 °F 83% 30.03 in 10.0 mi North 19.6 mph - N/A Snow Light Snow
1:35 AM 23.0 °F 9.2 °F 18.5 °F 83% 30.04 in 7.0 mi North 17.3 mph - N/A Snow Light Snow
1:55 AM 22.5 °F 7.6 °F 17.8 °F 82% 30.05 in 10.0 mi North 19.6 mph 25.3 mph N/A   Overcast
2:15 AM 21.9 °F 9.8 °F 17.6 °F 83% 30.06 in 10.0 mi North 12.7 mph - N/A   Overcast
2:35 AM 22.1 °F 8.9 °F 17.2 °F 82% 30.07 in 10.0 mi North 15.0 mph 19.6 mph N/A   Overcast
2:55 AM 21.4 °F 6.2 °F 15.8 °F 79% 30.08 in 10.0 mi North 19.6 mph 23.0 mph N/A   Mostly Cloudy
3:15 AM 20.1 °F 7.5 °F 15.1 °F 81% 30.09 in 10.0 mi North 12.7 mph - N/A   Mostly Cloudy
3:35 AM 19.0 °F 5.0 °F 14.0 °F 81% 30.08 in 10.0 mi North 15.0 mph 20.7 mph N/A   Scattered Clouds
3:55 AM 18.7 °F 2.7 °F 14.0 °F 82% 30.09 in 10.0 mi North 19.6 mph 24.2 mph N/A   Clear
4:15 AM 18.5 °F 2.9 °F 14.0 °F 83% 30.09 in 10.0 mi North 18.4 mph 23.0 mph N/A   Clear
4:35 AM 18.1 °F 4.4 °F 13.8 °F 83% 30.10 in 10.0 mi North 13.8 mph - N/A   Clear
4:55 AM 16.9 °F 5.5 °F 12.9 °F 84% 30.09 in 10.0 mi North 9.2 mph - N/A   Clear
5:15 AM 15.4 °F 6.8 °F 11.5 °F 84% 30.11 in 10.0 mi NW 5.8 mph - N/A   Clear
5:35 AM 14.9 °F 5.0 °F 11.1 °F 85% 30.10 in 10.0 mi NNW 6.9 mph - N/A   Clear
5:55 AM 15.6 °F 2.5 °F 11.5 °F 84% 30.10 in 10.0 mi North 11.5 mph - N/A   Clear
6:15 AM 15.8 °F 4.2 °F 11.3 °F 82% 30.11 in 10.0 mi NNW 9.2 mph - N/A   Clear
6:35 AM 14.5 °F 4.6 °F 10.4 °F 84% 30.12 in 10.0 mi NNW 6.9 mph - N/A   Clear
6:55 AM 13.8 °F 2.7 °F 9.5 °F 83% 30.14 in 10.0 mi WNW 8.1 mph - N/A   Clear
7:15 AM 12.9 °F 1.6 °F 8.6 °F 83% 30.16 in 10.0 mi NW 8.1 mph - N/A   Clear
7:35 AM 12.7 °F 2.4 °F 8.4 °F 83% 30.16 in 10.0 mi WNW 6.9 mph - N/A   Clear
7:55 AM 11.1 °F -0.6 °F 7.0 °F 83% 30.16 in 10.0 mi NW 8.1 mph - N/A   Clear
8:15 AM 12.4 °F 0.0 °F 8.1 °F 83% 30.18 in 10.0 mi NW 9.2 mph - N/A   Clear
8:35 AM 14.0 °F 2.9 °F 9.5 °F 82% 30.18 in 10.0 mi NW 8.1 mph - N/A   Clear
8:55 AM 15.8 °F 4.2 °F 10.8 °F 80% 30.19 in 10.0 mi NW 9.2 mph - N/A   Clear
9:15 AM 17.2 °F 6.8 °F 11.7 °F 79% 30.21 in 10.0 mi NW 8.1 mph - N/A   Clear
9:35 AM 19.0 °F 6.1 °F 12.0 °F 74% 30.22 in 10.0 mi NNW 12.7 mph - N/A   Clear
9:55 AM 19.8 °F 5.4 °F 10.4 °F 67% 30.22 in 10.0 mi North 16.1 mph - N/A   Clear
10:15 AM 21.0 °F 8.6 °F 10.8 °F 65% 30.23 in 10.0 mi North 12.7 mph 17.3 mph N/A   Clear
10:35 AM 21.9 °F 10.4 °F 11.8 °F 65% 30.23 in 10.0 mi North 11.5 mph - N/A   Clear
10:55 AM 22.5 °F 11.1 °F 12.6 °F 66% 30.24 in 10.0 mi North 11.5 mph 17.3 mph N/A   Clear
11:15 AM 23.7 °F 12.1 °F 12.2 °F 61% 30.24 in 10.0 mi North 12.7 mph 17.3 mph N/A   Clear
11:35 AM 24.1 °F 12.5 °F 12.9 °F 62% 30.24 in 10.0 mi North 12.7 mph 16.1 mph N/A   Clear
11:55 AM 24.8 °F 15.3 °F 12.4 °F 59% 30.23 in 10.0 mi North 9.2 mph 16.1 mph N/A   Clear
12:15 PM 25.7 °F 16.4 °F 11.8 °F 56% 30.23 in 10.0 mi North 9.2 mph - N/A   Clear
12:35 PM 26.1 °F 17.6 °F 11.3 °F 54% 30.22 in 10.0 mi North 8.1 mph - N/A   Clear
12:55 PM 27.0 °F 16.7 °F 11.3 °F 52% 30.21 in 10.0 mi NNE 11.5 mph - N/A   Clear
1:15 PM 27.1 °F 18.9 °F 11.1 °F 51% 30.21 in 10.0 mi North 8.1 mph - N/A   Clear
1:35 PM 27.7 °F 20.4 °F 10.6 °F 49% 30.21 in 10.0 mi North 6.9 mph - N/A   Clear
1:55 PM 28.4 °F 19.7 °F 10.2 °F 47% 30.20 in 10.0 mi North 9.2 mph - N/A   Clear
2:15 PM 28.8 °F 19.5 °F 9.9 °F 45% 30.20 in 10.0 mi NNE 10.4 mph - N/A   Clear
2:35 PM 29.3 °F 20.2 °F 10.0 °F 45% 30.20 in 10.0 mi North 10.4 mph - N/A   Clear
2:55 PM 29.3 °F 22.3 °F 9.3 °F 43% 30.20 in 10.0 mi NNE 6.9 mph - N/A   Clear
3:15 PM 29.3 °F 25.6 °F 9.9 °F 44% 30.21 in 10.0 mi North 3.5 mph - N/A   Clear
3:35 PM 29.3 °F 22.3 °F 9.3 °F 43% 30.22 in 10.0 mi NE 6.9 mph - N/A   Clear
3:55 PM 29.3 °F 22.3 °F 9.1 °F 43% 30.22 in 10.0 mi NE 6.9 mph - N/A   Clear
4:15 PM 28.9 °F 22.8 °F 8.6 °F 42% 30.23 in 10.0 mi ENE 5.8 mph - N/A   Clear
4:35 PM 28.4 °F 22.2 °F 9.1 °F 44% 30.24 in 10.0 mi ENE 5.8 mph - N/A   Clear
4:55 PM 27.5 °F 20.2 °F 9.5 °F 47% 30.24 in 10.0 mi NE 6.9 mph - N/A   Clear
5:15 PM 26.2 °F 17.1 °F 8.6 °F 47% 30.25 in 10.0 mi ENE 9.2 mph - N/A   Clear
5:35 PM 24.6 °F 15.1 °F 8.6 °F 51% 30.26 in 10.0 mi NE 9.2 mph - N/A   Clear
5:55 PM 22.8 °F 12.9 °F 8.6 °F 55% 30.27 in 10.0 mi NE 9.2 mph - N/A   Clear
6:15 PM 21.2 °F 10.1 °F 8.4 °F 58% 30.28 in 10.0 mi NNE 10.4 mph - N/A   Clear
6:35 PM 19.8 °F 8.3 °F 8.1 °F 61% 30.30 in 10.0 mi NE 10.4 mph - N/A   Clear
6:55 PM 19.0 °F 7.5 °F 8.2 °F 63% 30.32 in 10.0 mi NE 10.4 mph - N/A   Clear
7:15 PM 17.8 °F 5.2 °F 7.3 °F 64% 30.33 in 10.0 mi NE 11.5 mph - N/A   Clear
7:35 PM 16.3 °F 3.4 °F 6.8 °F 66% 30.33 in 10.0 mi NE 11.5 mph - N/A   Clear
7:55 PM 15.8 °F 1.4 °F 6.6 °F 67% 30.33 in 10.0 mi NE 13.8 mph - N/A   Clear
8:15 PM 14.9 °F -0.8 °F 5.5 °F 66% 30.35 in 10.0 mi NE 16.1 mph - N/A   Clear
8:35 PM 14.5 °F -1.3 °F 5.9 °F 69% 30.36 in 10.0 mi NE 16.1 mph 20.7 mph N/A   Clear
8:55 PM 13.8 °F -2.2 °F 5.9 °F 71% 30.37 in 10.0 mi NE 16.1 mph 20.7 mph N/A   Clear
9:15 PM 13.1 °F -2.6 °F 5.5 °F 72% 30.39 in 10.0 mi NE 15.0 mph - N/A   Clear
9:35 PM 12.2 °F -4.3 °F 5.2 °F 73% 30.39 in 10.0 mi NE 16.1 mph 21.9 mph N/A   Clear
9:55 PM 11.7 °F -0.9 °F 5.0 °F 75% 30.41 in 10.0 mi NNE 9.2 mph - N/A   Clear
10:15 PM 10.9 °F 1.4 °F 4.8 °F 76% 30.42 in 10.0 mi NNE 5.8 mph - N/A   Clear
10:35 PM 10.2 °F -1.7 °F 5.0 °F 79% 30.43 in 10.0 mi NNE 8.1 mph - N/A   Clear
10:55 PM 10.4 °F -0.4 °F 4.8 °F 78% 30.44 in 10.0 mi NE 6.9 mph - N/A   Clear
11:15 PM 10.2 °F - 4.8 °F 79% 30.46 in 10.0 mi Calm Calm - N/A   Mostly Cloudy
11:35 PM 10.8 °F -1.1 °F 5.2 °F 78% 30.45 in 10.0 mi NE 8.1 mph - N/A   Overcast
11:55 PM 11.7 °F -0.9 °F 5.9 °F 78% 30.45 in 10.0 mi NE 9.2 mph - N/A   Overcast